Weather History for Marshalltown, IA

Change the Weather History Date:

Friday, May 24, 2013

  Actual Average Record
Temperature  
Mean Temperature 55 °F 63 °F  
Max Temperature 68 °F 74 °F 84 °F (2006)
Min Temperature 41 °F 52 °F 39 °F (2001)
Degree Days  
Heating Degree Days 10 4  
Month to date heating degree days 206 176  
Since 1 July heating degree days 6958 6961  
Cooling Degree Days 0 2  
Month to date cooling degree days 38 27  
Year to date cooling degree days 42 31  
Growing Degree Days 6 (Base 50)    
Moisture  
Dew Point 45 °F    
Average Humidity 69    
Maximum Humidity 96    
Minimum Humidity 42    
Precipitation  
Precipitation T in 0.13 in 1.09 in (2004)
Month to date precipitation 6.77 3.12  
Sea Level Pressure  
Sea Level Pressure 30.30 in    
Wind  
Wind Speed 11 mph (ESE)    
Max Wind Speed 22 mph    
Max Gust Speed 26 mph    
Visibility 10 miles    
Events Rain    
T = Trace of Precipitation, MM = Missing Value Source: NWS Daily Summary

Daily Weather History Graph

Daily Weather History Graph

Search for Another Location

Airport:

Trip Planner

Search our weather history database for the weather conditions in past years. The results will help you decide how hot, cold, wet, or windy it might be!

Date:

Astronomy

May. 24, 2013 Rise Set
Actual Time 5:42 AM CDT 8:34 PM CDT
Civil Twilight 5:09 AM CDT 9:07 PM CDT
Nautical Twilight 4:28 AM CDT 9:49 PM CDT
Astronomical Twilight 3:39 AM CDT 10:38 PM CDT
Moon 8:16 PM CDT (5/24) 5:16 AM CDT (5/24)
Length of Visible Light 15h 57m
Length of Day
14h 51m
Full, 100% of the Moon is Illuminated
May 24
Full
May 24
Full
May 31
Last Quarter
Jun 8
New
Jun 16
First Quarter

Hourly Weather History & Observations

Time (CDT) Temp. Windchill Dew Point Humidity Pressure Visibility Wind Dir Wind Speed Gust Speed Precip Events Conditions
12:53 AM 48.0 °F - 43.0 °F 83% 30.30 in 10.0 mi NE 5.8 mph - N/A   Clear
1:53 AM 48.0 °F - 42.1 °F 80% 30.30 in 10.0 mi NE 4.6 mph - N/A   Clear
2:53 AM 46.0 °F 44.8 °F 41.0 °F 83% 30.30 in 10.0 mi ENE 3.5 mph - N/A   Clear
3:53 AM 44.1 °F - 41.0 °F 89% 30.33 in 10.0 mi Calm Calm - N/A   Clear
4:53 AM 43.0 °F 41.3 °F 41.0 °F 93% 30.34 in 10.0 mi ENE 3.5 mph - N/A   Clear
5:53 AM 44.1 °F - 39.0 °F 82% 30.35 in 10.0 mi Calm Calm - N/A   Clear
6:53 AM 45.0 °F 40.6 °F 42.1 °F 90% 30.36 in 10.0 mi East 8.1 mph - N/A   Clear
7:53 AM 52.0 °F - 45.0 °F 77% 30.37 in 10.0 mi ESE 8.1 mph - N/A   Clear
8:53 AM 55.9 °F - 50.0 °F 80% 30.38 in 10.0 mi SSE 13.8 mph - N/A   Clear
9:53 AM 59.0 °F - 51.1 °F 75% 30.38 in 10.0 mi SSE 13.8 mph - N/A   Partly Cloudy
10:53 AM 61.0 °F - 50.0 °F 67% 30.37 in 10.0 mi South 15.0 mph - N/A   Mostly Cloudy
11:53 AM 63.0 °F - 48.9 °F 60% 30.35 in 10.0 mi SE 17.3 mph - N/A   Mostly Cloudy
12:53 PM 64.0 °F - 48.9 °F 58% 30.33 in 10.0 mi ESE 17.3 mph 21.9 mph N/A   Partly Cloudy
1:53 PM 66.0 °F - 48.0 °F 52% 30.32 in 10.0 mi SE 11.5 mph - N/A   Clear
2:53 PM 66.9 °F - 45.0 °F 45% 30.30 in 10.0 mi SSE 17.3 mph - N/A   Clear
3:53 PM 68.0 °F - 44.1 °F 42% 30.26 in 10.0 mi SSE 17.3 mph 25.3 mph N/A   Clear
4:53 PM 68.0 °F - 44.1 °F 42% 30.24 in 10.0 mi South 17.3 mph 23.0 mph N/A   Clear
5:53 PM 68.0 °F - 44.1 °F 42% 30.23 in 10.0 mi South 13.8 mph - N/A   Clear
6:53 PM 66.9 °F - 44.1 °F 44% 30.22 in 10.0 mi SSE 15.0 mph - N/A   Clear
7:53 PM 64.9 °F - 44.1 °F 47% 30.21 in 10.0 mi SE 11.5 mph - N/A   Partly Cloudy
8:53 PM 61.0 °F - 50.0 °F 67% 30.25 in 10.0 mi East 10.4 mph - 0.00 in Rain Light Rain
9:53 PM 59.0 °F - 46.9 °F 64% 30.22 in 10.0 mi ESE 15.0 mph - 0.00 in Rain Light Rain
10:53 PM 57.9 °F - 48.0 °F 70% 30.22 in 10.0 mi ESE 13.8 mph - 0.00 in   Overcast
11:53 PM 57.0 °F - 48.0 °F 72% 30.24 in 10.0 mi ESE 6.9 mph - 0.00 in   Overcast